H1 CPF 2 NER 2025 4 9 9 099 01 glonass131 H2 1301901 9131 39155 2025 4 9 0 0 0 2025 4 12 23 45 0 900 1 1 0 0 0 1 H9 10 0 60774 0.00000 0 12844909.820 7720643.911 20673990.153 10 0 60774 900.00000 0 13810922.734 9964460.499 19016164.489 10 0 60774 1800.00000 0 14844787.153 11926352.110 16989842.950 10 0 60774 2700.00000 0 15891251.317 13571186.282 14633983.075 10 0 60774 3600.00000 0 16891012.929 14876079.766 11994005.773 10 0 60774 4500.00000 0 17783280.779 15831130.680 9120940.143 10 0 60774 5400.00000 0 18508426.278 16439615.549 6070451.998 10 0 60774 6300.00000 0 19010613.156 16717640.962 2901773.277 10 0 60774 7200.00000 0 19240293.273 16693262.505 -323447.659 10 0 60774 8100.00000 0 19156461.015 16405106.517 -3542352.507 10 0 60774 9000.00000 0 18728568.040 15900551.876 -6692112.009 10 0 60774 9900.00000 0 17938014.006 15233548.539 -9711171.698 10 0 60774 10800.00000 0 16779146.619 14462165.836 -12540478.012 10 0 60774 11700.00000 0 15259725.380 13645975.891 -15124658.390 10 0 60774 12600.00000 0 13400826.559 12843385.174 -17413129.675 10 0 60774 13500.00000 0 11236191.320 12109029.811 -19361110.669 10 0 60774 14400.00000 0 8811043.247 11491347.649 -20930516.935 10 0 60774 15300.00000 0 6180424.753 11030432.291 -22090718.611 10 0 60774 16200.00000 0 3407122.782 10756261.900 -22819145.361 10 0 60774 17100.00000 0 559271.928 10687378.856 -23101726.194 10 0 60774 18000.00000 0 -2292263.101 10830076.503 -22933155.722 10 0 60774 18900.00000 0 -5076614.676 11178126.801 -22316982.443 10 0 60774 19800.00000 0 -7725633.870 11713059.120 -21265518.561 10 0 60774 20700.00000 0 -10176492.082 12404976.444 -19799574.765 10 0 60774 21600.00000 0 -12374054.114 13213872.177 -17948027.004 10 0 60774 22500.00000 0 -14272924.522 14091389.451 -15747225.769 10 0 60774 23400.00000 0 -15839083.561 14982946.271 -13240261.376 10 0 60774 24300.00000 0 -17051047.028 15830134.745 -10476101.565 10 0 60774 25200.00000 0 -17900504.793 16573291.649 -7508619.846 10 0 60774 26100.00000 0 -18392415.006 17154131.035 -4395534.987 10 0 60774 27000.00000 0 -18544553.868 17518327.773 -1197283.260 10 0 60774 27900.00000 0 -18386543.549 17617943.769 2024154.100 10 0 60774 28800.00000 0 -17958402.174 17413595.850 5206445.357 10 0 60774 29700.00000 0 -17308679.219 16876275.821 8288101.997 10 0 60774 30600.00000 0 -16492256.126 15988747.997 11209649.646 10 0 60774 31500.00000 0 -15567905.010 14746467.371 13914754.942 10 0 60774 32400.00000 0 -14595707.492 13157981.374 16351288.569 10 0 60774 33300.00000 0 -13634440.656 11244799.270 18472306.076 10 0 60774 34200.00000 0 -12739037.800 9040734.719 20236929.885 10 0 60774 35100.00000 0 -11958228.130 6590748.118 21611117.738 10 0 60774 36000.00000 0 -11332451.909 3949335.170 22568304.809 10 0 60774 36900.00000 0 -10892136.337 1178526.199 23089908.659 10 0 60774 37800.00000 0 -10656402.856 -1654423.899 23165688.321 10 0 60774 38700.00000 0 -10632259.365 -4479562.724 22793950.879 10 0 60774 39600.00000 0 -10814311.389 -7226883.206 21981601.060 10 0 60774 40500.00000 0 -11185005.528 -9828975.877 20744031.686 10 0 60774 41400.00000 0 -11715396.985 -12223583.281 19104855.150 10 0 60774 42300.00000 0 -12366411.565 -14355952.307 17095478.700 10 0 60774 43200.00000 0 -13090552.025 -16180887.613 14754528.963 10 0 60774 44100.00000 0 -13833979.828 -17664420.595 12127133.982 10 0 60774 45000.00000 0 -14538887.003 -18785023.282 9264073.996 10 0 60774 45900.00000 0 -15146059.721 -19534314.784 6220815.165 10 0 60774 46800.00000 0 -15597525.985 -19917228.584 3056443.291 10 0 60774 47700.00000 0 -15839175.089 -19951631.428 -167482.586 10 0 60774 48600.00000 0 -15823236.438 -19667407.867 -3388134.493 10 0 60774 49500.00000 0 -15510510.360 -19105047.557 -6542653.518 10 0 60774 50400.00000 0 -14872253.218 -18313794.201 -9569395.814 10 0 60774 51300.00000 0 -13891633.488 -17349434.479 -12409160.247 10 0 60774 52200.00000 0 -12564693.583 -16271821.459 -15006371.238 10 0 60774 53100.00000 0 -10900773.509 -15142238.981 -17310191.126 10 0 60774 54000.00000 0 -8922375.854 -14020720.818 -19275537.800 10 0 60774 54900.00000 0 -6664475.933 -12963440.489 -20863985.566 10 0 60774 55800.00000 0 -4173305.278 -12020284.586 -22044529.898 10 0 60774 56700.00000 0 -1504659.551 -11232714.201 -22794200.051 10 0 60774 57600.00000 0 1278197.414 -10632006.240 -23098507.058 10 0 60774 58500.00000 0 4106944.320 -10237949.455 -22951718.529 10 0 60774 59400.00000 0 6910825.547 -10058049.941 -22356955.609 10 0 60774 60300.00000 0 9619375.608 -10087278.404 -21326111.434 10 0 60774 61200.00000 0 12165130.016 -10308367.928 -19879594.281 10 0 60774 62100.00000 0 14486208.887 -10692647.123 -18045902.302 10 0 60774 63000.00000 0 16528665.676 -11201370.684 -15861040.147 10 0 60774 63900.00000 0 18248504.086 -11787488.300 -13367790.888 10 0 60774 64800.00000 0 19613280.887 -12397774.639 -10614859.370 10 0 60774 65700.00000 0 20603230.390 -12975228.294 -7655905.401 10 0 60774 66600.00000 0 21211866.823 -13461636.926 -4548487.044 10 0 60774 67500.00000 0 21446043.011 -13800199.574 -1352935.625 10 0 60774 68400.00000 0 21325466.537 -13938095.529 1868815.153 10 0 60774 69300.00000 0 20881696.956 -13828892.181 5054423.107 10 0 60774 70200.00000 0 20156668.910 -13434691.726 8142331.829 10 0 60774 71100.00000 0 19200804.961 -12727928.022 11072943.183 10 0 60774 72000.00000 0 18070798.350 -11692739.852 13789746.780 10 0 60774 72900.00000 0 16827158.572 -10325864.510 16240386.534 10 0 60774 73800.00000 0 15531621.712 -8637015.350 18377645.891 10 0 60774 74700.00000 0 14244532.275 -6648727.945 20160334.994 10 0 60774 75600.00000 0 13022303.815 -4395680.805 21554064.971 10 0 60774 76500.00000 0 11915062.101 -1923517.618 22531896.469 10 0 60774 77400.00000 0 10964566.920 712782.202 23074851.485 10 0 60774 78300.00000 0 10202497.376 3450919.883 23172279.715 10 0 60774 79200.00000 0 9649170.945 6223600.347 22822072.642 10 0 60774 80100.00000 0 9312749.337 8961069.178 22030720.821 10 0 60774 81000.00000 0 9188964.718 11593761.772 20813212.031 10 0 60774 81900.00000 0 9261379.025 14054957.830 19192770.396 10 0 60774 82800.00000 0 9502167.462 16283333.267 17200439.099 10 0 60774 83700.00000 0 9873395.719 18225304.844 14874511.979 10 0 60774 84600.00000 0 10328739.841 19837070.306 12259822.176 10 0 60774 85500.00000 0 10815578.701 21086258.287 9406898.886 10 0 60775 0.00000 0 11277372.669 21953117.493 6371006.580 10 0 60775 900.00000 0 11656229.323 22431193.689 3211081.966 10 0 60775 1800.00000 0 11895547.110 22527462.583 -11407.448 10 0 60775 2700.00000 0 11942624.903 22261912.236 -3233666.494 10 0 60775 3600.00000 0 11751124.239 21666589.317 -6392809.033 10 0 60775 4500.00000 0 11283277.316 20784148.611 -9427104.154 10 0 60775 5400.00000 0 10511743.763 19665966.378 -12277205.278 10 0 60775 6300.00000 0 9421033.906 18369897.587 -14887335.743 10 0 60775 7200.00000 0 8008434.833 16957772.994 -17206405.110 10 0 60775 8100.00000 0 6284397.052 15492743.682 -19189031.864 10 0 60775 9000.00000 0 4272363.100 14036587.474 -20796450.377 10 0 60775 9900.00000 0 2008043.816 12647093.390 -21997282.616 10 0 60775 10800.00000 0 -461827.808 11375636.635 -22768158.399 10 0 60775 11700.00000 0 -3081212.661 10265048.056 -23094171.563 10 0 60775 12600.00000 0 -5786878.488 9347868.743 -22969163.242 10 0 60775 13500.00000 0 -8510819.968 8645063.319 -22395827.456 10 0 60775 14400.00000 0 -11182883.179 8165245.130 -21385638.128 10 0 60775 15300.00000 0 -13733483.342 7904444.134 -19958600.592 10 0 60775 16200.00000 0 -16096301.403 7846424.712 -18142834.271 10 0 60775 17100.00000 0 -18210846.516 7963536.924 -15973996.695 10 0 60775 18000.00000 0 -20024777.833 8218062.093 -13494562.105 10 0 60775 18900.00000 0 -21495889.911 8563992.765 -10752970.662 10 0 60775 19800.00000 0 -22593680.863 8949169.154 -7802666.529 10 0 60775 20700.00000 0 -23300440.376 9317679.654 -4701045.042 10 0 60775 21600.00000 0 -23611815.303 9612422.639 -1508330.495 10 0 60775 22500.00000 0 -23536832.546 9777720.777 1713593.078 10 0 60775 23400.00000 0 -23097381.564 9761877.708 4902375.236 10 0 60775 24300.00000 0 -22327181.074 9519570.169 7996393.936 10 0 60775 25200.00000 0 -21270275.504 9013976.170 10935929.606 10 0 60775 26100.00000 0 -19979125.541 8218551.343 13664297.198 10 0 60775 27000.00000 0 -18512373.181 7118380.465 16128916.240 10 0 60775 27900.00000 0 -16932374.241 5711048.778 18282300.399 10 0 60775 28800.00000 0 -15302600.125 4006997.418 20082949.756 10 0 60775 29700.00000 0 -13685015.298 2029348.040 21496130.854 10 0 60775 30600.00000 0 -12137537.469 -186796.929 22494531.586 10 0 60775 31500.00000 0 -10711683.821 -2595551.091 23058779.867 10 0 60775 32400.00000 0 -9450499.066 -5141890.764 23177817.200 10 0 60775 33300.00000 0 -8386849.769 -7763686.428 22849120.270 10 0 60775 34200.00000 0 -7542154.924 -10394038.167 22078765.883 10 0 60775 35100.00000 0 -6925605.342 -12963821.791 20881336.833 10 0 60775 36000.00000 0 -6533905.008 -15404343.314 19279668.662 10 0 60775 36900.00000 0 -6351546.523 -17649994.166 17304439.792 10 0 60775 37800.00000 0 -6351610.980 -19640798.598 14993610.232 10 0 60775 38700.00000 0 -6497060.980 -21324748.039 12391716.835 10 0 60775 39600.00000 0 -6742474.646 -22659824.771 9549036.068 10 0 60775 40500.00000 0 -7036149.545 -23615629.151 6520628.214 10 0 60775 41400.00000 0 -7322489.038 -24174540.273 3365279.811 10 0 60775 42300.00000 0 -7544570.633 -24332358.863 144363.940 10 0 60775 43200.00000 0 -7646787.116 -24098402.735 -3079359.586 10 0 60775 44100.00000 0 -7577447.020 -23495048.339 -6242980.123 10 0 60775 45000.00000 0 -7291221.762 -22556735.727 -9284682.571 10 0 60775 45900.00000 0 -6751332.597 -21328477.711 -12144977.920 10 0 60775 46800.00000 0 -5931381.173 -19863935.774 -14767891.507 10 0 60775 47700.00000 0 -4816742.627 -18223144.515 -17102083.176 10 0 60775 48600.00000 0 -3405458.958 -16469982.023 -19101874.964 10 0 60775 49500.00000 0 -1708592.242 -14669494.811 -20728164.028 10 0 60775 50400.00000 0 249979.209 -12885192.342 -21949201.207 10 0 60775 51300.00000 0 2434314.185 -11176427.316 -22741218.839 10 0 60775 52200.00000 0 4797680.017 -9595973.823 -23088895.031 10 0 60775 53100.00000 0 7284288.081 -8187906.490 -22985645.417 10 0 60775 54000.00000 0 9831419.505 -6985870.123 -22433737.361 10 0 60775 54900.00000 0 12371850.573 -6011811.977 -21444225.578 10 0 60775 55800.00000 0 14836474.798 -5275228.404 -20036712.004 10 0 60775 56700.00000 0 17157010.706 -4772955.083 -18238936.436 10 0 60775 57600.00000 0 19268681.361 -4489506.610 -16086207.937 10 0 60775 58500.00000 0 21112753.418 -4397947.635 -13620690.112 10 0 60775 59400.00000 0 22638830.204 -4461255.298 -10890556.170 10 0 60775 60300.00000 0 23806804.341 -4634112.153 -7949031.922 10 0 60775 61200.00000 0 24588390.382 -4865051.093 -4853346.880 10 0 60775 62100.00000 0 24968176.000 -5098859.569 -1663614.907 10 0 60775 63000.00000 0 24944150.822 -5279140.330 1558333.205 10 0 60775 63900.00000 0 24527693.854 -5350920.121 4750142.391 10 0 60775 64800.00000 0 23743022.939 -5263196.675 7850128.514 10 0 60775 65700.00000 0 22626131.703 -4971317.664 10798453.899 10 0 60775 66600.00000 0 21223260.141 -4439092.926 13538261.877 10 0 60775 67500.00000 0 19588963.615 -3640552.777 16016750.265 10 0 60775 68400.00000 0 17783860.786 -2561280.133 18186165.233 10 0 60775 69300.00000 0 15872153.457 -1199261.673 20004698.652 10 0 60775 70200.00000 0 13919019.920 434777.074 21437273.938 10 0 60775 71100.00000 0 11987988.030 2317567.169 22456207.267 10 0 60775 72000.00000 0 10138394.720 4414015.338 23041733.094 10 0 60775 72900.00000 0 8423035.035 6678418.945 23182384.938 10 0 60775 73800.00000 0 6886096.127 9056129.259 22875224.459 10 0 60775 74700.00000 0 5561460.484 11485597.317 22125914.064 10 0 60775 75600.00000 0 4471448.005 13900721.013 20948630.502 10 0 60775 76500.00000 0 3626049.187 16233399.421 19365819.279 10 0 60775 77400.00000 0 3022682.136 18416191.162 17407792.266 10 0 60775 78300.00000 0 2646484.902 20384968.480 15112173.550 10 0 60775 79200.00000 0 2471132.782 22081457.738 12523201.356 10 0 60775 80100.00000 0 2460148.316 23455560.517 9690896.888 10 0 60775 81000.00000 0 2568650.831 24467357.415 6670113.834 10 0 60775 81900.00000 0 2745473.284 25088708.872 3519485.211 10 0 60775 82800.00000 0 2935557.782 25304383.364 300287.097 10 0 60775 83700.00000 0 3082528.409 25112662.727 -2924758.891 10 0 60775 84600.00000 0 3131331.293 24525396.284 -6092720.344 10 0 60775 85500.00000 0 3030828.085 23567498.988 -9141700.561 10 0 60776 0.00000 0 2736230.131 22275912.973 -12012070.211 10 0 60776 900.00000 0 2211266.684 20698074.499 -14647659.237 10 0 60776 1800.00000 0 1429992.185 18889952.602 -16996879.313 10 0 60776 2700.00000 0 378152.223 16913740.595 -19013757.558 10 0 60776 3600.00000 0 -945952.287 14835300.790 -20658855.182 10 0 60776 4500.00000 0 -2531141.597 12721471.404 -21900052.919 10 0 60776 5400.00000 0 -4353589.436 10637351.124 -22713186.399 10 0 60776 6300.00000 0 -6377601.977 8643677.468 -23082518.528 10 0 60776 7200.00000 0 -8556910.458 6794410.516 -23001039.661 10 0 60776 8100.00000 0 -10836422.287 5134624.191 -22470590.394 10 0 60776 9000.00000 0 -13154355.807 3698793.352 -21501805.745 10 0 60776 9900.00000 0 -15444667.609 2509547.458 -20113883.364 10 0 60776 10800.00000 0 -17639669.238 1576940.924 -18334182.140 10 0 60776 11700.00000 0 -19672722.517 898267.913 -16197661.041 10 0 60776 12600.00000 0 -21480899.959 458425.812 -13746171.139 10 0 60776 13500.00000 0 -23007498.944 230808.333 -11027616.590 10 0 60776 14400.00000 0 -24204305.177 178686.861 -8095002.643 10 0 60776 15300.00000 0 -25033512.141 257018.428 -5005390.709 10 0 60776 16200.00000 0 -25469218.339 414601.256 -1818781.919 10 0 60776 17100.00000 0 -25498442.214 596484.925 1403048.488 10 0 60776 18000.00000 0 -25121615.081 746532.326 4597743.150 10 0 60776 18900.00000 0 -24352534.199 810025.133 7703558.170 10 0 60776 19800.00000 0 -23217780.396 736203.508 10660540.121 10 0 60776 20700.00000 0 -21755626.462 480634.273 13411663.033 10 0 60776 21600.00000 0 -20014483.011 7309.490 15903905.263 10 0 60776 22500.00000 0 -18050946.854 -709611.064 18089247.607 10 0 60776 23400.00000 0 -15927532.554 -1684485.213 19925575.658 10 0 60776 24300.00000 0 -13710180.053 -2919355.619 21377471.355 10 0 60776 25200.00000 0 -11465639.824 -4403633.609 22416880.502 10 0 60776 26100.00000 0 -9258841.592 -6114313.470 23023645.089 10 0 60776 27000.00000 0 -7150353.087 -8016709.927 23185891.272 10 0 60776 27900.00000 0 -5194031.733 -10065690.545 22900265.964 10 0 60776 28800.00000 0 -3434964.578 -12207354.885 22172017.106 10 0 60776 29700.00000 0 -1907780.521 -14381094.056 21014915.009 10 0 60776 30600.00000 0 -635404.277 -16521948.573 19451014.450 10 0 60776 31500.00000 0 371695.914 -18563169.614 17510259.760 10 0 60776 32400.00000 0 1115734.573 -20438879.636 15229937.829 10 0 60776 33300.00000 0 1611298.357 -22086723.170 12653986.726 10 0 60776 34200.00000 0 1884509.638 -23450397.739 9832170.611 10 0 60776 35100.00000 0 1971697.575 -24481958.619 6819134.586 10 0 60776 36000.00000 0 1917630.924 -25143799.428 3673356.005 10 0 60776 36900.00000 0 1773386.046 -25410223.054 456011.644 10 0 60776 37800.00000 0 1593939.861 -25268534.029 -2770217.457 10 0 60776 38700.00000 0 1435590.183 -24719603.251 -5942379.613 10 0 60776 39600.00000 0 1353314.229 -23777878.280 -8998499.074 10 0 60776 40500.00000 0 1398179.581 -22470836.278 -11878809.295 10 0 60776 41400.00000 0 1614920.374 -20837900.870 -14526946.426 10 0 60776 42300.00000 0 2039784.729 -18928867.728 -16891077.105 10 0 60776 43200.00000 0 2698748.021 -16801905.260 -18924936.016 10 0 60776 44100.00000 0 3606170.700 -14521215.482 -20588750.712 10 0 60776 45000.00000 0 4763959.929 -12154455.032 -21850033.818 10 0 60776 45900.00000 0 6161272.281 -9770026.639 -22684225.905 10 0 60776 46800.00000 0 7774770.961 -7434356.675 -23075175.915 10 0 60776 47700.00000 0 9569426.820 -5209274.718 -23015449.744 10 0 60776 48600.00000 0 11499828.780 -3149606.003 -22506461.634 10 0 60776 49500.00000 0 13511947.370 -1301077.913 -21558426.914 10 0 60776 50400.00000 0 15545275.656 301372.492 -20190138.574 10 0 60776 51300.00000 0 17535256.045 1634820.662 -18428573.850 10 0 60776 52200.00000 0 19415889.627 2689057.842 -16308340.480 10 0 60776 53100.00000 0 21122417.473 3466749.265 -13870975.463 10 0 60776 54000.00000 0 22593960.929 3983044.408 -11164111.958 10 0 60776 54900.00000 0 23776010.378 4264659.697 -8240532.294 10 0 60776 55800.00000 0 24622658.995 4348476.048 -5157127.059 10 0 60776 56700.00000 0 25098489.445 4279713.703 -1973781.639 10 0 60776 57600.00000 0 25180036.558 4109763.927 1247787.509 10 0 60776 58500.00000 0 24856767.147 3893770.797 4445224.029 10 0 60776 59400.00000 0 24131538.500 3688065.878 7556727.553 10 0 60776 60300.00000 0 23020518.723 3547563.856 10522232.049 10 0 60776 61200.00000 0 21552574.197 3523227.994 13284545.195 10 0 60776 62100.00000 0 19768151.018 3659710.657 15790428.564 10 0 60776 63000.00000 0 17717697.503 3993266.382 17991599.948 10 0 60776 63900.00000 0 15459693.089 4550023.425 19845640.722 10 0 60776 64800.00000 0 13058364.295 5344684.847 21316793.066 10 0 60776 65700.00000 0 10581180.614 6379712.791 22376633.779 10 0 60776 66600.00000 0 8096231.703 7645030.030 23004613.378 10 0 60776 67500.00000 0 5669591.772 9118252.245 23188451.250 10 0 60776 68400.00000 0 3362777.560 10765443.167 22924379.698 10 0 60776 69300.00000 0 1230402.742 12542363.752 22217231.874 10 0 60776 70200.00000 0 -681875.961 14396166.566 21080370.840 10 0 60776 71100.00000 0 -2339036.994 16267468.233 19535459.354 10 0 60776 72000.00000 0 -3717927.139 18092716.950 17612072.476 10 0 60776 72900.00000 0 -4807997.919 19806759.254 15347157.788 10 0 60776 73800.00000 0 -5611513.401 21345501.044 12784350.769 10 0 60776 74700.00000 0 -6143219.075 22648552.781 9973155.872 10 0 60776 75600.00000 0 -6429483.844 23661748.188 6968006.775 10 0 60776 76500.00000 0 -6506949.454 24339429.781 3827222.223 10 0 60776 77400.00000 0 -6420742.809 24646403.181 611876.706 10 0 60776 78300.00000 0 -6222325.922 24559475.242 -2615392.300 10 0 60776 79200.00000 0 -5967074.465 24068507.994 -5791616.723 10 0 60776 80100.00000 0 -5711688.420 23176940.685 -8854744.517 10 0 60776 81000.00000 0 -5511546.357 21901754.903 -11744874.212 10 0 60776 81900.00000 0 -5418118.093 20272881.798 -14405450.955 10 0 60776 82800.00000 0 -5476548.417 18332074.809 -16784398.048 10 0 60776 83700.00000 0 -5723517.496 16131294.681 -18835159.405 10 0 60776 84600.00000 0 -6185471.692 13730674.962 -20517630.273 10 0 60776 85500.00000 0 -6877302.290 11196154.573 -21798956.222 10 0 60777 0.00000 0 -7801529.905 8596878.671 -22654183.474 10 0 60777 900.00000 0 -8948030.770 6002477.265 -23066747.618 10 0 60777 1800.00000 0 -10294315.465 3480340.880 -23028790.142 10 0 60777 2700.00000 0 -11806349.512 1093004.101 -22541298.715 10 0 60777 3600.00000 0 -13439878.963 -1104249.416 -21614068.376 10 0 60777 4500.00000 0 -15142204.016 -3065461.764 -20265486.455 10 0 60777 5400.00000 0 -16854324.142 -4755669.589 -18522147.142 10 0 60777 6300.00000 0 -18513362.771 -6152099.139 -16418305.203 10 0 60777 7200.00000 0 -20055168.094 -7244840.451 -13995181.534 10 0 60777 8100.00000 0 -21416979.657 -8036976.025 -11300136.046 10 0 60777 9000.00000 0 -22540048.394 -8544162.569 -8385725.767 10 0 60777 9900.00000 0 -23372100.284 -8793687.372 -5308668.003 10 0 60777 10800.00000 0 -23869541.262 -8823042.797 -2128729.895 10 0 60777 11700.00000 0 -23999312.402 -8678082.035 1092433.390 10 0 60777 12600.00000 0 -23740319.649 -8410836.233 4292469.017 10 0 60777 13500.00000 0 -23084380.387 -8077086.427 7409522.646 10 0 60777 14400.00000 0 -22036649.488 -7733793.059 10383418.125 10 0 60777 15300.00000 0 -20615508.931 -7436490.944 13156799.188 10 0 60777 16200.00000 0 -18851927.009 -7236758.136 15676212.919 10 0 60777 17100.00000 0 -16788314.504 -7179863.471 17893116.219 10 0 60777 18000.00000 0 -14476925.312 -7302689.700 19764788.095 10 0 60777 18900.00000 0 -11977866.959 -7632017.583 21255132.505 10 0 60777 19800.00000 0 -9356801.764 -8183241.478 22335358.420 10 0 60777 20700.00000 0 -6682431.513 -8959569.504 22984525.665 10 0 60777 21600.00000 0 -4023866.962 -9951741.924 23189947.245 10 0 60777 22500.00000 0 -1447988.059 -11138280.598 22947440.873 10 0 60777 23400.00000 0 983098.650 -12486261.129 22261424.579 10 0 60777 24300.00000 0 3214402.534 -13952578.177 21144853.529 10 0 60777 25200.00000 0 5200095.961 -15485654.374 19618997.524 10 0 60777 26100.00000 0 6905181.860 -17027524.780 17713061.139 10 0 60777 27000.00000 0 8306712.526 -18516212.930 15463651.164 10 0 60777 27900.00000 0 9394508.114 -19888301.638 12914098.737 10 0 60777 28800.00000 0 10171343.443 -21081592.577 10113646.590 10 0 60777 29700.00000 0 10652593.523 -22037743.745 7116514.733 10 0 60777 30600.00000 0 10865350.793 -22704773.568 3980860.859 10 0 60777 31500.00000 0 10847049.561 -23039324.702 767654.596 10 0 60777 32400.00000 0 10643654.480 -23008589.762 -2460512.790 10 0 60777 33300.00000 0 10307489.126 -22591814.613 -5640659.510 10 0 60777 34200.00000 0 9894796.962 -21781312.386 -8710659.855 10 0 60777 35100.00000 0 9463139.270 -20582942.052 -11610479.996 10 0 60777 36000.00000 0 9068742.369 -19016028.347 -14283376.532 10 0 60777 36900.00000 0 8763909.241 -17112724.169 -16677031.749 10 0 60777 37800.00000 0 8594608.226 -14916840.859 -18744600.907 10 0 60777 38700.00000 0 8598343.922 -12482195.142 -20445648.818 10 0 60777 39600.00000 0 8802403.116 -9870542.616 -21746955.562 10 0 60777 40500.00000 0 9222552.062 -7149185.695 -22623174.323 10 0 60777 41400.00000 0 9862241.565 -4388357.840 -23057327.848 10 0 60777 42300.00000 0 10712353.903 -1658495.413 -23041133.828 10 0 60777 43200.00000 0 11751501.992 972487.194 -22575153.389 10 0 60777 44100.00000 0 12946867.062 3441804.168 -21668760.963 10 0 60777 45000.00000 0 14255537.886 5694177.314 -20339937.560 10 0 60777 45900.00000 0 15626293.151 7683888.714 -18614893.352 10 0 60777 46800.00000 0 17001749.815 9376422.681 -16527528.844 10 0 60777 47700.00000 0 18320785.077 10749630.790 -14118747.234 10 0 60777 48600.00000 0 19521128.487 11794374.403 -11435633.275 10 0 60777 49500.00000 0 20542014.146 12514621.543 -8530516.460 10 0 60777 50400.00000 0 21326781.144 12926998.047 -5459938.302 10 0 60777 51300.00000 0 21825313.288 13059815.791 -2283544.946 10 0 60777 52200.00000 0 21996216.671 12951622.423 937072.639 10 0 60777 53100.00000 0 21808645.240 12649336.501 4139568.115 10 0 60777 54000.00000 0 21243699.679 12206048.575 7262036.136 10 0 60777 54900.00000 0 20295343.057 11678581.842 10244193.276 10 0 60777 55800.00000 0 18970796.764 11124915.129 13028522.010 10 0 60777 56700.00000 0 17290401.660 10601575.783 15561357.405 10 0 60777 57600.00000 0 15286951.078 10161110.597 17793897.705 10 0 60777 58500.00000 0 13004523.479 9849739.024 19683121.522 10 0 60777 59400.00000 0 10496862.557 9705285.113 21192596.303 10 0 60777 60300.00000 0 7825370.341 9755472.996 22293164.595 10 0 60777 61200.00000 0 5056794.205 10016655.946 22963496.616 10 0 60777 62100.00000 0 2260700.687 10493031.598 23190499.697 10 0 60777 63000.00000 0 -493162.473 11176376.426 22969577.243 10 0 60777 63900.00000 0 -3137509.997 12046311.809 22304731.972 10 0 60777 64800.00000 0 -5610061.803 13071092.631 21208510.468 10 0 60777 65700.00000 0 -7855881.679 14208888.204 19701788.368 10 0 60777 66600.00000 0 -9829416.305 15409505.037 17813398.078 10 0 60777 67500.00000 0 -11496150.444 16616482.481 15579603.465 10 0 60777 68400.00000 0 -12833809.083 17769476.240 13043428.856 10 0 60777 69300.00000 0 -13833055.204 18806831.887 10253852.530 10 0 60777 70200.00000 0 -14497652.371 19668241.450 7264877.937 10 0 60777 71100.00000 0 -14844083.349 20297371.447 4134498.749 10 0 60777 72000.00000 0 -14900638.854 20644350.605 923576.743 10 0 60777 72900.00000 0 -14706013.264 20668010.311 -2305345.973 10 0 60777 73800.00000 0 -14307465.569 20337780.339 -5489276.766 10 0 60777 74700.00000 0 -13758623.136 19635156.381 -8566018.999 10 0 60777 75600.00000 0 -13117021.940 18554673.834 -11475409.046 10 0 60777 76500.00000 0 -12441488.940 17104343.321 -14160517.282 10 0 60777 77400.00000 0 -11789479.755 15305526.719 -16568787.016 10 0 60777 78300.00000 0 -11214487.066 13192256.820 -18653086.581 10 0 60777 79200.00000 0 -10763632.335 10810028.066 -20372651.744 10 0 60777 80100.00000 0 -10475545.447 8214108.953 -21693898.144 10 0 60777 81000.00000 0 -10378624.152 5467447.571 -22591086.582 10 0 60777 81900.00000 0 -10489748.426 2638259.231 -23046827.496 10 0 60777 82800.00000 0 -10813504.719 -202601.148 -23052414.702 10 0 60777 83700.00000 0 -11341952.658 -2984370.442 -22607982.466 10 0 60777 84600.00000 0 -12054943.017 -5639096.996 -21722483.901 10 0 60777 85500.00000 0 -12920971.856 -8104234.198 -20413492.625 99